sat.trackr.live / text

‹ back to catalog

STARLINK-30457

NORAD 57900 · 2023-146K

PAYLOAD ACTIVE UNKNOWN

§ Identity

Operator
Country
US
Launch date
2023-09-20
Launch site
AFETR
Launch vehicle
Mass (kg)
RCS (m²)

Purposes: comms

External: N2YO · Heavens-Above · Gunter

§ Orbital elements

Epoch: 2026-09-20T10:04:02.501760Z

Period
94.27 min
Inclination
43.0054°
Eccentricity
0.0001697
Mean motion
15.27582276 rev/d
Perigee alt
481.9 km
Apogee alt
484.2 km
Semi-major
6,861.2 km
B*
4.2969e-5
RAAN
294.8120°
Arg perigee
268.4120°
Mean anomaly
91.6538°
Rev number
16,577

§ Raw data

STARLINK-304571 57900U 23146K   26263.41947340  .00000920  00000+0  42969-4 0  99922 57900  43.0054 294.8120 0001697 268.4120  91.6538 15.27582276165774

JSON: /api/v1/satellites/57900 · /tle

For live sub-satellite position, see the globe view (requires WebGL).

§ Visibility from observer

Set your observer location to see the next 7 days of passes ≥ 10°. The values pass through the URL so the page stays shareable.

No JS? Fill the form by hand. The geolocation button needs JavaScript.